Location: Unspecified
(35.6961°N, 0.0000°E)
Time: 04:26:10
(UTC+00:00)

Transit 4A - Visible Passes

Search period start: 21 May 2019 00:00
Search period end: 31 May 2019 00:00
Orbit: 862 x 983 km, 66.8° (Epoch: 20 May)

Date Brightness Start Highest point End Pass type
(mag) Time Alt. Az. Time Alt. Az. Time Alt. Az.
21 May 8.8 01:20:52 10° NW 01:25:04 38° WNW 01:25:04 38° WNW visible
21 May 9.0 23:44:01 10° NNW 23:49:58 38° NE 23:50:13 38° ENE visible
22 May 9.4 01:30:36 10° NW 01:33:42 25° WNW 01:33:42 25° WNW visible
22 May 10.5 22:10:33 10° NNE 22:11:38 10° NE 22:12:41 10° NE visible
22 May 8.5 23:53:09 10° NNW 23:58:54 54° NE 23:58:54 54° NE visible
23 May 9.9 01:40:40 10° WNW 01:42:23 16° WNW 01:42:23 16° WNW visible
23 May 10.1 22:17:56 10° N 22:21:30 15° NE 22:24:10 12° ENE visible
24 May 8.3 00:02:25 10° NNW 00:07:40 61° NNW 00:07:40 61° NNW visible
24 May 9.7 22:26:28 10° N 22:31:15 21° NE 22:32:59 19° ENE visible
25 May 8.6 00:11:50 10° NNW 00:16:27 48° NW 00:16:27 48° NW visible
25 May 9.2 22:35:20 10° N 22:40:55 30° NE 22:41:49 29° ENE visible
26 May 9.1 00:21:25 10° NW 00:25:19 33° WNW 00:25:19 33° WNW visible
26 May 8.6 22:44:22 10° NNW 22:50:28 44° ENE 22:50:43 44° ENE visible
27 May 9.6 00:31:15 10° NW 00:34:13 22° WNW 00:34:13 22° WNW visible
27 May 10.2 21:09:56 10° NNE 21:12:16 12° NE 21:14:34 10° ENE visible
27 May 8.2 22:53:33 10° NNW 22:59:39 64° NE 22:59:39 64° NE visible
28 May 10.0 00:41:32 10° WNW 00:43:09 15° WNW 00:43:09 15° WNW visible
28 May 9.9 21:18:02 10° N 21:22:06 17° NE 21:25:08 13° ENE visible
28 May 8.0 23:02:52 10° NNW 23:08:38 73° NW 23:08:38 73° NW visible
29 May 9.5 21:26:42 10° N 21:31:49 24° NE 21:34:08 20° E visible
29 May 8.4 23:12:20 10° NW 23:17:38 52° WNW 23:17:38 52° WNW visible
30 May 8.9 21:35:38 10° N 21:41:26 35° NE 21:43:11 30° E visible
30 May 9.0 23:22:00 10° NW 23:26:42 35° W 23:26:42 35° W visible
